Theta_e
297 297 297 296 296 296 295 294 294 293 292 295 302 307 310 312 313 313 314 315 315 315 314 314 314 314 314 314 314 314 314 314 315 314 314 315 315 316 316 317 317 318 318 318 319 319 319 319 319 318 318 317 316 316 315 314 315 316 319 321 319 315 316 317 315 315 317 317 317 316 314 313 312 312 315 316 315 315 315 315 315 316 316 315 315 315 316
295 296 296 296 296 296 295 295 294 293 292 293 299 305 309 311 312 312 313 314 313 314 315 314 314 314 313 312 313 313 312 313 314 314 314 315 316 316 316 316 316 317 317 317 317 318 318 318 318 318 318 318 316 314 315 315 315 318 320 320 318 317 317 318 317 317 318 318 318 318 315 314 313 314 315 314 314 315 315 314 314 314 314 314 315 315 315
295 295 296 296 296 296 296 295 295 294 292 292 297 303 306 308 310 310 312 313 312 313 314 313 313 313 313 313 313 312 312 312 312 313 312 313 315 316 315 314 315 316 316 316 316 316 316 316 317 318 319 319 316 314 315 315 315 317 317 316 316 317 318 318 317 318 318 318 318 318 317 316 315 316 317 316 315 315 314 314 314 314 314 314 314 314 314
295 295 295 295 295 296 296 295 295 294 292 292 296 301 303 306 307 308 310 311 311 312 312 313 313 313 313 313 313 312 312 312 311 311 312 312 312 313 313 312 313 314 315 315 315 315 315 315 315 315 317 318 316 315 316 315 315 316 315 315 314 313 316 317 317 317 318 317 317 318 318 317 316 315 316 316 315 315 313 313 314 313 314 314 314 314 314
295 295 295 295 295 295 295 295 295 295 293 292 296 300 302 304 305 307 310 311 311 312 312 312 312 312 312 312 312 312 312 312 310 310 311 311 311 311 311 311 313 314 314 314 314 314 314 314 313 313 315 315 313 313 314 314 314 315 314 314 314 312 313 315 315 315 316 316 316 316 316 316 316 315 315 315 315 315 315 314 313 313 315 314 314 314 314
295 295 295 295 295 295 295 295 295 295 293 292 294 298 301 303 303 305 308 309 309 311 312 311 312 312 311 311 311 311 311 311 311 310 310 310 311 311 311 312 312 312 312 312 312 312 313 313 313 313 312 310 309 310 310 311 313 313 313 313 314 314 314 314 314 315 315 315 315 315 315 315 314 315 314 314 315 315 315 315 314 314 315 314 313 314 314
295 295 294 295 295 294 295 295 294 295 294 292 293 296 299 301 301 302 304 304 305 307 307 308 309 310 310 311 311 311 310 310 310 310 311 311 310 311 312 311 309 307 307 309 309 310 311 311 310 309 307 305 306 307 308 310 310 308 309 310 311 313 314 314 314 314 314 314 314 314 314 314 314 314 314 314 314 314 314 314 314 314 314 313 313 314 314
294 294 294 294 294 294 294 294 294 294 294 293 292 294 296 299 300 301 301 301 301 302 303 304 305 306 308 309 310 310 310 310 310 310 311 311 310 310 310 307 304 304 304 305 306 307 307 305 305 304 303 303 304 305 307 308 307 305 306 309 310 312 313 314 314 314 314 314 313 313 313 313 314 314 313 313 313 313 313 313 313 314 313 313 313 313 313
294 294 294 294 294 294 294 294 294 294 295 294 293 292 294 297 298 298 299 300 301 302 301 302 303 304 306 307 308 309 309 308 307 307 308 309 308 306 304 302 302 302 303 303 304 303 302 301 301 302 301 302 303 303 304 305 305 305 306 308 308 310 311 312 313 315 315 314 314 313 312 312 312 313 313 313 313 312 313 313 313 313 313 313 313 314 313
293 293 293 293 294 294 294 294 294 294 294 295 294 293 293 295 296 297 298 298 300 300 300 301 302 303 303 304 305 306 305 303 303 304 306 306 304 301 300 300 301 302 302 302 301 300 299 299 299 300 300 301 302 302 303 304 305 305 306 307 307 308 309 311 312 313 313 314 314 313 313 313 314 313 313 312 312 312 312 312 312 313 313 313 313 313 310
293 293 293 293 293 294 294 294 294 294 294 294 294 293 293 293 294 295 296 297 297 298 299 299 301 301 301 300 301 302 301 300 300 302 303 302 300 299 298 299 300 301 301 300 298 297 297 297 298 299 300 300 301 302 303 303 304 305 306 306 307 308 308 309 310 311 311 312 313 313 314 314 315 316 315 313 313 313 312 312 312 311 310 309 308 307 303
293 293 293 293 293 294 294 294 293 293 293 293 293 293 293 293 293 293 295 295 295 296 297 298 298 298 298 298 298 298 298 297 297 298 299 299 299 298 298 298 300 300 300 298 296 296 296 296 297 298 299 300 300 301 302 303 304 304 305 306 307 307 307 308 308 309 310 310 311 312 313 313 315 315 310 307 309 309 309 312 310 303 299 300 301 300 298
293 292 292 291 292 293 293 293 293 293 292 293 293 293 293 293 293 293 294 294 294 295 295 295 295 295 295 295 296 296 296 296 297 297 297 298 298 297 297 299 299 298 298 296 296 296 297 297 297 297 298 298 299 300 301 302 302 303 303 305 306 306 306 307 307 308 309 309 310 311 311 312 314 309 302 299 301 300 302 307 303 295 293 297 298 297 296
293 293 293 292 292 292 291 292 293 293 292 292 293 293 293 293 293 293 293 294 293 293 294 294 293 293 293 294 294 295 295 296 297 296 296 297 297 296 297 298 297 296 296 296 295 296 297 297 297 297 297 297 297 299 301 302 303 304 304 305 306 307 307 307 308 309 309 309 309 309 310 311 309 303 297 296 297 295 297 302 300 293 293 296 296 295 296
294 294 294 293 293 293 293 292 292 293 293 293 293 293 293 293 293 293 293 293 294 294 294 293 294 293 293 293 294 294 295 296 296 296 296 295 295 295 296 297 296 295 295 295 296 297 297 297 296 296 296 297 297 297 299 300 303 306 306 303 302 304 305 306 306 308 309 309 309 308 310 309 302 296 295 296 295 294 296 301 300 294 293 295 295 295 295
294 294 294 294 294 294 294 293 293 293 293 293 293 293 292 293 293 293 293 293 293 293 293 293 293 293 293 293 294 294 294 295 295 295 295 294 294 294 295 296 296 294 294 294 296 297 297 296 296 296 296 296 296 296 297 298 299 301 303 301 298 299 302 303 303 303 304 305 305 305 308 305 296 293 295 295 294 294 298 303 301 293 292 295 294 293 294
294 294 294 294 294 294 294 294 293 293 293 293 293 293 292 292 292 292 293 293 293 293 293 293 293 293 293 293 294 294 294 295 294 294 294 294 294 295 295 295 294 293 293 294 295 296 296 295 295 295 295 295 295 295 296 297 296 296 298 299 298 298 300 300 300 299 300 301 301 302 304 300 293 293 294 293 293 296 300 305 301 293 292 294 293 292 293
294 294 294 294 294 294 294 294 293 293 293 293 293 292 292 292 292 292 292 293 293 293 293 293 293 293 293 293 293 294 294 294 294 294 294 294 294 294 294 293 293 293 293 294 295 295 294 294 294 294 294 295 295 296 296 296 295 295 296 297 296 297 298 298 298 298 298 299 298 299 301 297 292 292 293 292 294 297 297 298 296 293 293 293 292 292 292
294 294 294 294 294 294 294 293 293 293 292 293 293 293 292 292 292 292 292 293 293 293 293 293 293 293 293 293 293 293 293 293 293 294 294 293 293 293 293 294 294 293 292 293 295 295 294 294 294 295 295 295 296 296 295 295 295 294 294 294 294 295 296 296 297 296 296 296 295 295 297 296 292 291 292 292 294 293 293 294 293 292 292 291 291 291 291
294 293 293 293 294 294 294 294 293 293 293 293 294 293 292 292 292 292 292 292 293 293 292 292 292 292 292 293 293 293 293 293 293 293 293 293 293 293 293 293 293 292 291 292 293 294 293 293 294 294 294 295 296 295 293 293 294 293 292 292 292 293 293 293 293 293 293 293 293 293 295 295 292 290 291 293 293 292 292 293 293 292 291 290 289 290 289
293 293 293 293 293 294 294 294 293 294 294 293 293 293 293 292 292 292 292 292 292 292 292 292 292 292 292 292 292 292 293 293 293 293 293 293 293 293 292 292 292 292 293 293 293 293 293 293 293 293 293 293 294 293 292 293 292 292 291 291 290 291 291 291 292 293 292 292 293 293 293 292 291 290 290 292 292 292 293 292 291 290 290 289 289 289 288
293 293 293 293 293 293 293 293 293 294 294 293 293 293 293 292 292 292 292 292 292 292 292 292 292 292 292 292 292 292 292 292 292 293 293 293 293 293 293 292 292 292 292 293 293 292 292 293 293 293 292 292 292 291 292 291 290 290 290 290 290 292 292 292 292 293 292 291 292 293 292 291 290 289 290 291 291 292 292 291 289 288 288 288 288 288 288
293 293 293 293 293 293 293 293 293 293 294 293 293 293 293 292 292 291 292 292 292 292 292 292 292 292 292 292 292 292 292 292 292 292 293 292 292 292 292 292 292 292 292 293 292 292 292 292 292 292 292 292 291 291 291 290 290 290 290 290 290 291 291 290 291 291 290 290 291 290 289 289 289 289 290 290 291 291 290 289 288 288 288 287 287 287 287
292 292 293 293 293 293 293 292 292 293 293 293 293 293 293 292 292 291 292 292 292 292 292 292 292 292 292 291 291 291 291 291 291 291 292 292 292 292 292 292 292 292 293 293 293 292 291 290 290 291 291 291 292 291 290 290 290 290 290 290 290 290 289 290 290 290 289 290 290 289 288 288 288 289 289 290 290 290 289 288 288 288 288 287 286 286 286
292 292 292 293 293 292 292 292 292 293 293 292 292 293 292 292 292 292 292 292 292 292 291 291 292 292 292 291 291 291 291 291 291 291 291 292 292 292 292 292 292 292 293 292 293 292 290 289 290 290 290 291 291 291 290 290 290 290 290 289 290 290 290 290 290 289 289 289 289 288 288 288 288 289 289 289 289 289 288 288 287 287 287 286 286 285 285
292 292 292 292 292 292 292 292 293 293 292 292 292 292 292 292 292 292 292 292 292 291 291 291 291 292 292 291 291 291 291 290 290 291 291 291 291 292 292 292 292 292 292 292 292 291 290 290 291 290 290 291 291 291 290 290 290 290 290 289 289 290 290 290 290 289 289 289 288 288 288 288 288 289 289 289 289 288 288 288 287 286 285 285 284 284 284
291 292 292 291 292 292 292 292 292 292 292 292 292 292 292 292 291 291 291 291 291 291 291 291 291 291 291 291 291 290 290 290 290 290 291 291 291 292 292 292 292 292 292 292 292 291 289 289 290 290 290 291 291 290 290 290 290 290 290 289 289 290 290 290 289 289 288 288 288 289 289 288 289 289 289 289 289 288 287 287 286 286 285 283 283 283 283
291 291 291 291 292 292 292 292 292 292 292 292 292 292 292 292 291 291 291 291 291 291 291 290 291 291 290 290 290 290 290 290 290 290 290 291 291 291 292 292 292 292 292 292 291 291 289 289 290 290 290 290 291 290 290 290 290 290 290 290 290 290 290 289 289 289 289 289 289 289 289 288 289 289 289 288 288 287 286 285 285 284 284 282 281 281 281
291 291 291 291 291 291 292 291 291 291 292 292 292 292 292 291 291 291 291 291 291 291 291 290 290 290 290 290 290 290 290 290 290 290 290 290 290 291 291 292 292 292 292 292 291 291 289 289 290 290 290 291 291 290 290 289 289 289 290 290 290 290 290 290 289 289 289 289 289 289 289 289 289 289 288 287 286 285 285 284 283 283 283 282 281 279 279
291 291 291 291 291 291 292 291 291 291 292 291 291 291 291 291 291 291 290 290 291 291 291 291 291 291 291 291 291 291 291 290 290 290 290 290 290 290 291 291 291 292 292 291 290 289 289 289 290 290 290 291 290 290 290 289 289 289 289 290 290 290 290 290 290 289 289 289 289 289 288 288 288 288 287 286 285 284 283 283 282 282 281 280 280 279 278
290 290 291 291 291 291 291 291 291 292 292 291 291 291 291 291 291 290 290 290 290 290 291 291 290 290 290 290 290 290 290 290 290 290 290 290 290 290 290 291 291 292 292 291 290 289 290 290 290 290 290 291 290 290 289 289 289 289 289 289 289 290 290 290 290 289 289 288 288 287 287 287 287 286 285 285 284 283 282 281 281 280 279 278 278 277 277
290 290 291 291 291 291 291 291 291 291 291 291 291 291 291 290 290 290 290 290 290 290 290 290 290 290 290 290 290 290 290 290 290 290 290 290 290 290 291 291 291 291 291 291 290 289 288 289 289 289 289 290 290 290 289 289 289 289 289 289 289 289 289 289 289 288 287 287 286 285 286 286 285 283 283 283 283 282 280 279 279 279 278 278 278 277 276
290 290 290 290 291 291 291 291 291 291 291 291 291 291 291 290 290 290 290 290 290 291 290 289 289 290 290 290 290 290 290 290 290 291 291 291 291 291 291 291 291 291 291 291 291 289 289 289 289 289 289 290 290 290 290 290 290 290 290 290 290 289 288 288 287 286 285 284 283 282 282 283 283 282 281 281 281 281 280 279 278 278 277 277 278 277 276
290 290 290 290 290 290 290 290 291 291 291 291 291 291 291 290 290 290 290 290 290 291 291 290 289 290 290 289 290 290 291 291 291 291 290 290 291 291 291 291 291 291 291 291 290 290 290 290 289 289 290 289 289 289 289 289 289 290 290 289 289 288 287 286 285 283 282 281 280 280 280 280 281 281 281 281 281 280 279 278 276 275 275 276 277 276 275
290 290 290 290 290 290 290 290 291 291 291 291 291 291 290 290 290 290 290 290 290 290 291 290 289 289 289 289 289 290 290 290 291 291 290 291 291 292 292 291 290 290 291 290 289 289 290 290 288 288 287 287 287 288 289 288 288 288 287 286 285 284 283 282 281 280 280 279 279 279 279 279 279 280 280 280 279 279 278 276 274 272 272 274 274 274 272
289 289 289 290 289 290 290 290 290 291 291 290 290 290 290 290 290 289 290 290 290 290 290 289 289 289 289 288 290 291 290 290 291 291 291 291 291 291 291 289 287 288 290 289 288 289 290 290 288 287 286 287 288 287 286 285 285 283 281 279 278 278 277 277 276 277 278 278 278 278 278 277 277 278 278 278 278 276 275 274 273 271 270 271 272 272 271
289 289 289 289 289 289 289 290 290 290 290 290 290 290 290 290 290 290 290 290 290 290 289 288 289 289 289 289 291 291 290 290 291 290 290 290 290 289 289 287 287 288 288 287 288 290 289 289 289 289 288 288 285 281 279 279 279 278 276 274 274 274 274 274 274 275 276 277 277 276 275 275 276 275 275 275 276 274 272 272 271 270 269 270 270 270 269
289 289 289 289 289 289 289 290 290 289 289 289 289 289 289 289 289 289 290 290 290 290 290 289 289 289 289 289 290 290 290 290 290 289 289 289 289 288 287 287 289 289 287 285 287 289 288 288 289 289 288 286 280 275 274 275 274 273 273 272 272 272 273 273 273 272 273 273 273 272 272 273 274 274 273 273 274 274 273 271 270 269 268 268 267 267 267
289 289 289 288 288 289 289 289 289 289 289 289 289 289 289 289 289 288 289 289 289 289 290 290 289 288 289 289 289 290 291 290 289 289 290 289 289 289 287 287 289 288 286 287 288 288 288 288 286 286 288 287 279 272 270 271 271 271 271 271 271 271 271 271 271 270 269 269 269 269 269 269 270 272 273 273 273 275 276 273 270 268 267 266 266 265 265
289 289 288 288 287 288 289 289 289 289 289 289 289 288 288 288 289 288 288 288 289 288 289 290 290 289 289 289 289 290 290 289 289 289 289 288 289 289 286 286 287 286 286 288 288 287 287 287 284 285 289 285 275 268 268 270 270 270 271 271 272 272 271 271 270 270 269 269 269 269 268 268 268 269 270 270 270 272 274 273 271 268 266 265 265 264 264
288 288 288 287 287 288 288 288 289 289 289 288 288 288 287 288 288 286 285 286 288 289 289 289 290 290 290 289 289 289 289 290 290 288 286 285 287 287 286 286 286 284 285 286 286 285 286 285 285 287 285 275 267 266 268 269 270 270 271 271 271 271 271 271 271 270 269 270 269 269 269 268 268 267 267 267 267 267 268 268 268 266 265 265 265 264 263
288 288 287 287 287 288 288 288 289 289 288 288 287 287 287 287 287 286 286 287 289 289 289 289 290 290 290 290 289 289 289 289 289 287 285 285 286 287 286 286 285 285 284 284 285 286 285 285 287 286 277 266 264 268 269 268 269 270 270 270 270 270 270 270 270 270 269 269 269 269 269 268 268 267 266 266 265 264 264 264 265 265 264 264 264 263 263
288 287 287 287 287 288 288 288 288 288 288 287 286 287 287 287 287 288 288 288 288 288 289 289 290 290 290 289 288 288 289 289 288 286 285 285 286 286 285 285 286 286 285 285 286 286 286 287 289 283 271 264 265 268 267 266 268 268 268 268 268 268 268 269 269 269 269 268 268 268 268 267 267 266 265 264 263 263 263 263 264 264 264 263 263 263 263
287 288 287 287 287 288 288 287 287 287 287 287 286 286 287 287 287 288 289 289 287 287 288 288 289 289 290 289 287 287 288 288 287 286 285 285 286 286 286 287 287 285 284 286 287 286 286 286 282 273 266 265 267 267 266 266 266 265 266 267 267 266 267 268 268 268 269 268 267 266 266 265 265 264 263 263 262 262 263 264 265 264 263 263 262 263 263
287 287 287 286 287 287 287 286 285 286 287 287 287 288 288 288 288 288 287 285 285 286 287 287 288 289 288 286 286 286 286 285 285 285 285 285 285 285 286 287 287 285 286 287 286 286 287 284 274 266 264 266 266 264 264 265 264 264 265 266 266 266 266 267 266 266 266 266 265 264 263 263 263 263 263 263 263 263 264 265 264 263 263 263 263 263 263
287 286 286 286 286 287 286 285 284 285 287 288 287 287 287 288 287 285 282 282 283 284 284 285 286 287 287 286 285 286 286 285 285 285 285 286 286 286 284 284 285 286 287 286 286 287 288 280 269 264 264 265 263 263 264 264 264 264 264 265 265 265 265 265 265 264 263 263 263 262 262 263 263 263 263 264 264 265 265 264 263 263 263 262 262 262 262
287 287 287 286 286 286 287 285 283 282 283 282 281 281 282 283 282 280 280 281 282 283 283 284 285 286 286 286 286 286 286 286 286 286 285 286 287 286 284 285 286 286 286 286 287 288 283 272 264 263 265 264 262 263 263 263 263 264 263 263 265 265 264 264 263 262 261 261 262 262 262 263 263 262 263 263 264 265 264 263 263 263 263 262 262 262 262
286 286 286 286 286 286 286 284 281 279 279 278 277 277 279 279 278 278 279 281 282 283 284 284 285 286 286 286 286 286 285 285 285 286 285 285 286 286 285 285 285 285 285 286 285 280 272 266 263 263 263 263 262 262 262 262 263 263 263 263 264 264 263 262 262 261 261 261 262 262 262 263 262 262 262 263 263 263 263 263 263 263 262 262 262 262 262
287 286 285 284 285 284 281 280 280 280 278 278 277 278 278 277 276 276 278 280 281 283 284 284 284 286 286 285 285 285 285 285 285 285 285 285 285 286 285 285 285 285 282 278 273 268 265 264 263 263 262 262 262 262 262 262 262 262 262 262 262 261 261 261 262 262 262 261 261 262 262 262 262 262 262 262 262 263 263 263 263 262 262 262 262 262 262
286 285 282 281 283 282 280 280 281 281 279 277 276 276 277 276 275 276 279 280 281 282 283 283 284 285 285 284 284 285 285 285 285 285 284 285 285 284 282 283 286 285 278 269 264 263 263 263 262 262 261 261 261 261 261 262 262 262 262 262 261 261 261 261 262 262 262 262 261 262 262 262 262 262 262 262 262 262 262 263 262 262 262 262 262 262 262
283 280 277 277 279 280 280 281 281 281 280 277 274 274 275 274 274 275 278 279 280 282 284 283 283 283 284 284 284 283 283 282 283 284 284 283 283 284 286 284 280 275 269 264 262 263 263 262 261 261 261 261 261 261 261 261 262 262 262 262 261 261 261 261 262 262 262 261 261 261 261 262 262 262 262 262 262 262 262 262 262 262 262 262 262 262 262
279 277 274 274 274 276 277 278 277 275 275 274 273 273 274 274 274 275 277 278 280 282 282 281 281 282 283 282 281 280 281 281 281 282 282 280 276 277 280 277 269 264 262 262 262 262 262 262 262 261 261 261 261 262 261 262 262 262 262 262 261 261 261 261 261 261 261 261 261 261 261 262 262 262 262 262 262 261 261 262 262 262 262 262 262 262 262
Wind_Speed
7 7 8 9 10 12 14 14 15 12 8 5 11 13 14 16 14 13 14 17 25 19 6 5 7 3 4 5 5 6 4 4 5 6 8 8 6 5 5 5 7 6 6 7 6 5 6 7 8 7 7 9 14 19 22 20 15 8 4 4 5 5 3 5 7 6 7 11 13 13 9 6 6 6 5 6 6 6 8 6 4 5 6 6 8 11 7
8 7 7 8 8 9 11 12 14 11 4 5 10 11 11 13 15 14 13 17 23 15 3 5 7 5 5 4 5 8 6 6 9 6 5 6 5 4 4 5 8 8 7 9 8 7 6 8 9 9 5 7 17 27 31 25 12 4 5 4 4 5 4 5 7 6 5 6 7 10 8 5 6 6 6 9 11 12 10 5 3 6 10 12 13 12 9
8 7 7 7 7 7 8 9 12 11 4 7 10 9 7 7 9 12 15 22 25 18 11 9 6 5 9 7 7 8 6 10 16 13 8 9 7 3 4 5 6 6 7 8 8 8 8 7 6 5 4 4 10 19 26 22 12 10 14 9 5 5 5 5 6 7 7 8 7 7 6 4 4 4 5 7 9 11 10 7 6 9 12 15 14 12 10
8 7 7 7 7 6 6 7 9 11 6 5 11 11 6 3 4 7 12 22 27 23 21 18 8 5 8 7 7 11 9 9 14 13 11 13 13 7 6 7 6 4 6 8 9 9 9 8 5 4 5 4 4 9 17 19 17 19 22 12 5 2 4 6 10 12 12 13 12 7 4 4 5 7 10 10 8 8 7 6 9 11 11 13 13 13 15
8 8 7 7 7 6 6 6 7 9 8 2 11 13 8 3 3 3 5 12 18 18 19 17 8 7 9 4 4 11 11 7 8 10 10 12 13 9 8 10 9 8 9 9 8 9 10 9 8 8 8 5 7 14 17 18 20 21 20 14 6 3 6 10 15 18 18 18 19 16 13 13 15 16 18 17 14 12 11 12 14 12 11 13 13 14 17
9 8 8 7 7 7 7 6 5 6 7 0 7 11 10 5 4 5 3 3 7 9 11 13 10 10 11 7 5 9 10 7 6 6 7 9 10 6 5 10 13 12 11 8 6 8 9 8 8 6 4 4 6 11 12 11 15 15 13 13 7 4 9 13 15 19 19 19 21 21 19 18 18 19 20 20 19 19 19 20 20 17 16 17 16 17 20
10 9 9 8 8 7 7 7 5 5 5 2 4 7 10 6 5 7 5 3 5 5 2 4 7 8 8 6 7 10 12 11 8 5 4 5 6 7 7 6 5 4 3 2 3 6 6 5 4 1 2 4 3 5 7 7 10 11 8 9 6 2 6 11 15 17 17 18 20 21 21 21 20 20 21 20 22 24 24 24 24 23 24 23 22 24 24
11 10 10 9 9 8 8 7 7 6 6 5 4 7 8 6 4 5 6 5 7 6 2 1 2 4 5 5 7 9 11 12 9 5 4 3 2 5 5 2 3 1 0 1 4 4 1 2 3 1 3 4 2 1 4 6 9 10 7 6 4 3 4 7 12 13 12 16 19 19 20 20 21 21 21 22 24 25 25 24 22 22 25 26 27 27 22
12 12 11 11 10 9 9 8 7 6 6 6 6 7 9 10 7 4 6 4 5 5 3 1 1 3 5 4 4 5 6 6 3 2 6 7 2 2 2 4 3 1 3 4 4 1 1 3 7 7 5 7 7 5 5 6 9 10 7 5 4 4 4 6 9 9 8 11 16 18 18 19 21 22 23 24 25 23 22 21 20 21 23 24 25 21 16
13 13 12 12 11 10 10 9 7 7 8 9 8 8 10 12 12 8 5 4 5 4 2 0 3 5 3 1 2 4 3 2 4 3 4 5 6 9 7 4 5 3 4 6 4 4 7 10 13 15 15 17 18 17 16 14 10 7 6 6 5 5 5 5 7 8 8 9 13 16 15 14 14 16 22 26 25 24 22 21 21 22 20 18 16 12 9
14 14 13 13 12 12 11 11 9 9 11 12 11 11 10 10 12 11 5 4 6 5 2 3 5 3 1 3 2 3 2 4 4 3 3 1 3 9 10 6 5 3 3 6 9 14 17 18 19 20 21 22 23 23 22 20 18 14 10 6 6 8 9 8 7 8 9 12 14 13 11 10 7 7 14 22 25 25 24 21 20 17 11 9 8 7 13
14 15 15 14 13 13 13 12 12 12 14 14 14 15 12 10 11 10 6 5 6 5 4 6 7 3 5 6 5 3 4 5 4 5 5 6 11 14 10 4 3 4 4 9 15 21 21 17 16 15 17 20 21 21 20 19 21 22 18 11 10 12 12 9 8 8 10 12 13 11 9 9 5 2 3 7 11 12 15 15 11 9 12 14 14 16 17
15 15 15 14 14 15 15 14 13 13 14 15 16 16 14 13 13 11 7 5 6 6 6 7 10 9 8 9 8 6 9 11 9 7 6 7 11 11 6 2 3 5 9 13 18 18 13 9 8 8 9 10 10 14 17 19 19 20 19 15 12 12 11 9 7 8 8 9 11 12 10 6 2 6 13 13 9 13 14 7 6 13 13 11 13 14 14
16 16 16 15 14 15 16 15 15 15 14 15 18 17 16 17 18 16 12 7 6 8 8 6 9 11 12 12 9 7 10 10 7 5 5 7 10 9 4 3 4 3 8 12 13 9 4 3 4 5 5 4 4 6 9 12 13 15 16 13 9 10 10 8 7 7 7 10 13 14 14 10 3 3 10 8 4 7 8 3 5 12 12 11 12 13 14
19 18 17 16 15 15 15 15 15 15 15 17 19 19 18 19 19 18 17 12 6 6 10 10 6 4 7 11 9 5 5 5 4 3 4 7 11 13 8 4 2 6 10 8 5 2 1 2 4 4 4 3 3 4 3 4 5 7 6 2 1 2 5 4 5 4 5 10 11 10 12 9 2 3 5 4 6 9 8 7 2 8 12 13 13 14 17
22 21 20 19 18 17 17 17 16 16 16 17 20 21 20 20 20 20 20 17 9 4 8 13 15 12 7 6 7 5 2 2 2 2 4 7 11 13 11 7 8 12 10 5 2 2 1 3 4 4 5 4 3 5 4 4 4 3 3 6 8 5 2 2 4 5 6 9 9 7 7 2 5 7 7 10 18 16 6 5 3 7 13 15 14 14 15
24 24 22 21 21 21 20 19 18 18 18 18 21 23 21 20 21 21 22 21 15 10 8 7 12 16 9 3 5 5 3 3 3 2 3 4 4 7 10 12 16 16 8 2 1 2 3 4 4 4 6 5 3 5 5 4 5 6 6 7 8 7 3 3 5 7 8 9 8 7 4 2 6 10 10 18 23 14 2 4 2 8 11 13 16 14 12
26 26 24 24 24 23 22 22 21 20 21 21 22 24 23 22 22 22 24 24 16 15 18 13 12 14 12 6 6 6 4 3 2 2 4 3 2 6 10 9 9 9 4 3 2 3 4 4 5 5 5 4 4 5 5 5 6 6 4 3 3 3 2 3 4 6 7 8 8 6 3 1 6 11 17 24 19 4 2 4 6 8 9 12 16 14 14
27 27 25 25 25 23 23 24 23 22 23 21 22 24 24 23 22 22 26 26 17 14 20 18 15 20 23 18 15 14 11 10 9 5 1 2 3 7 8 7 5 4 2 2 0 3 4 3 3 2 3 4 4 2 2 4 4 3 4 4 3 2 2 3 3 4 5 4 5 7 5 2 11 18 22 20 10 1 3 6 5 6 10 12 14 14 16
27 27 27 26 26 25 25 25 24 23 23 21 22 26 25 22 23 24 25 27 23 21 26 26 22 25 28 23 20 18 15 15 13 7 3 6 8 4 2 6 6 3 0 2 1 2 3 4 4 1 1 4 3 1 1 2 4 3 2 4 4 3 4 4 4 4 5 5 7 9 7 5 17 20 15 9 3 6 10 7 3 5 10 13 14 16 19
28 29 29 28 27 27 26 26 25 24 24 22 23 26 26 23 23 24 25 26 23 21 24 25 23 26 29 28 27 26 22 20 17 13 13 17 14 5 1 5 5 3 1 2 3 2 2 3 2 2 1 2 2 2 1 1 5 4 1 1 4 2 3 5 4 3 4 5 6 5 4 10 18 13 5 4 8 11 10 6 5 6 8 10 13 18 21
29 30 30 29 29 29 27 27 26 25 24 24 24 26 27 26 24 23 23 27 28 27 25 22 19 21 25 25 25 27 27 25 25 25 23 19 15 13 14 11 9 9 8 4 3 1 2 2 2 2 3 2 2 4 2 1 4 4 0 2 4 4 4 4 4 4 4 5 7 10 11 18 23 18 9 10 15 15 13 9 8 9 11 12 14 20 23
29 29 30 29 29 29 28 27 27 26 25 24 25 27 29 27 24 23 23 26 30 32 33 31 26 25 28 29 29 29 29 26 27 30 28 21 16 19 23 21 15 15 16 14 9 4 2 3 4 3 4 3 2 2 3 3 4 4 3 4 5 7 8 5 2 5 7 7 12 14 13 18 27 26 17 14 17 18 15 11 10 15 18 17 17 20 23
28 28 29 29 29 29 28 28 29 29 27 25 27 29 28 26 25 25 25 25 24 23 24 27 31 33 34 35 33 31 32 31 30 32 33 28 20 15 19 24 21 16 19 24 21 12 6 3 2 2 4 4 4 3 5 5 4 4 5 4 4 8 12 8 4 6 7 7 9 10 12 20 28 26 20 18 18 17 14 12 14 18 21 22 22 22 22
28 28 28 29 29 29 29 30 30 29 27 27 29 28 28 28 27 26 24 22 20 15 10 13 24 30 28 26 25 25 26 27 27 29 32 36 34 27 27 31 27 20 22 26 23 17 10 4 2 3 5 7 6 5 5 5 4 5 6 4 5 5 6 5 6 8 8 8 12 16 21 28 31 30 26 22 19 18 17 17 19 20 21 22 21 21 22
28 28 28 29 29 29 29 29 29 29 28 29 29 29 30 30 27 26 26 24 22 18 9 8 16 20 17 18 24 26 25 25 26 27 30 34 38 39 40 38 31 26 25 24 23 20 13 5 4 4 4 8 9 6 4 5 5 4 5 8 9 7 4 5 6 7 7 10 12 16 19 22 26 29 26 22 21 21 20 22 22 22 22 22 21 22 24
28 28 28 28 28 28 28 28 28 29 29 28 28 30 32 32 29 29 30 26 20 13 6 7 13 15 15 21 26 24 22 23 22 22 26 29 32 36 40 38 34 30 26 22 21 19 11 4 5 6 5 8 8 5 4 6 5 3 5 8 8 6 7 7 6 5 8 9 10 12 10 9 16 22 21 20 21 21 19 23 24 23 22 22 23 27 29
26 26 26 27 26 26 27 27 28 28 28 27 29 30 30 31 31 31 31 30 25 18 10 10 13 13 14 20 23 18 17 19 18 18 22 26 28 32 36 38 36 33 29 22 16 10 5 4 6 6 4 6 7 5 4 5 4 4 6 9 11 11 12 11 7 7 12 15 17 17 12 11 20 27 23 20 21 20 21 23 22 21 22 23 24 28 31
26 25 26 26 26 27 27 26 26 28 27 26 28 31 31 32 32 30 29 30 31 28 22 18 16 16 18 23 25 22 20 21 22 23 25 26 27 30 34 36 37 34 31 25 15 7 6 9 10 9 9 9 6 3 4 4 4 6 10 16 22 24 25 24 21 17 18 23 27 24 17 18 26 28 23 20 21 22 22 20 18 21 25 27 27 29 30
25 25 25 26 26 26 27 26 25 27 26 24 25 25 24 27 31 31 29 28 28 28 23 14 9 12 19 25 27 25 23 22 24 26 29 30 31 32 32 34 35 34 29 24 17 11 8 9 11 16 21 18 8 2 3 5 4 6 12 20 27 29 30 34 33 27 22 25 28 24 21 25 29 28 25 25 22 19 17 19 21 25 28 28 30 32 31
26 25 25 26 25 25 25 26 25 24 24 25 25 19 12 13 21 26 26 25 27 28 24 15 9 10 15 21 25 25 24 25 26 28 30 30 31 33 34 33 32 32 28 23 19 15 12 9 8 11 18 21 13 3 2 5 5 6 13 21 27 27 28 31 33 28 24 26 26 23 25 29 28 22 21 20 18 17 19 23 26 28 29 29 31 33 33
25 25 25 24 24 25 26 25 24 24 26 28 30 26 20 16 16 15 15 17 23 27 21 10 6 6 6 9 16 19 20 23 26 27 28 30 31 33 34 33 33 33 30 23 15 10 10 12 11 10 15 20 14 3 2 6 7 10 17 24 26 25 24 26 25 22 21 23 21 18 20 23 19 14 15 20 22 24 26 26 27 28 30 33 36 36 36
24 24 24 24 24 24 25 24 23 25 27 28 29 31 31 25 18 13 12 13 20 27 22 8 1 3 5 4 6 11 13 17 22 24 23 27 31 28 27 31 32 29 26 21 12 6 9 13 12 10 15 17 11 2 3 8 10 16 25 29 26 23 21 20 19 19 19 20 16 12 13 19 20 20 23 26 27 27 28 28 28 31 33 36 40 41 40
23 23 22 23 23 23 23 22 22 23 25 25 28 31 31 29 26 24 20 18 18 21 21 11 3 2 5 3 3 8 14 14 15 16 16 21 27 25 21 23 23 18 17 20 16 8 7 9 6 4 7 8 5 2 4 9 15 24 28 24 20 19 19 17 15 16 16 16 15 14 15 20 24 26 27 27 27 28 30 29 29 31 36 40 43 44 43
23 22 22 21 22 22 22 22 22 23 24 25 28 30 28 26 27 27 27 25 19 13 11 10 6 3 4 3 3 8 15 14 14 17 16 15 21 24 19 13 10 9 12 15 11 5 5 8 6 3 2 3 4 4 6 9 14 17 15 11 11 13 13 11 11 14 14 14 16 17 17 18 21 24 26 28 28 29 31 32 31 30 34 40 44 44 43
22 21 20 20 20 21 22 22 22 24 26 26 26 25 22 21 23 24 26 29 26 15 7 5 4 4 5 4 3 7 13 13 15 19 17 9 10 17 17 8 3 6 9 7 3 3 9 12 8 2 1 4 4 4 3 3 4 3 2 3 6 7 7 8 10 14 17 16 16 15 14 15 20 25 28 30 30 30 32 36 36 33 33 39 45 46 45
20 19 19 20 20 19 21 22 24 25 25 24 21 18 15 16 17 18 21 26 28 25 17 8 5 7 8 5 3 7 10 10 10 11 10 6 5 10 11 6 2 4 6 3 2 6 10 10 7 3 4 5 4 3 4 3 2 1 1 2 4 5 7 9 11 15 18 17 13 11 14 20 24 26 26 30 34 35 35 37 36 36 37 41 44 46 47
18 19 19 19 16 14 14 18 22 23 21 19 17 14 13 14 12 10 13 15 17 23 23 14 9 12 12 6 7 12 11 8 7 7 6 7 6 4 3 4 4 4 3 3 7 9 7 4 4 5 5 4 7 8 6 4 3 2 1 2 5 6 7 8 10 13 16 15 12 14 19 27 31 30 28 32 38 41 41 40 39 38 38 40 42 44 47
20 20 18 16 16 15 13 14 17 17 15 16 16 11 9 11 8 4 7 9 8 12 16 14 13 18 15 6 8 16 15 8 4 3 5 7 7 3 1 2 4 4 2 3 7 10 6 2 2 3 4 2 6 7 4 3 3 3 4 5 6 8 10 10 11 12 13 13 14 17 20 23 29 33 35 37 41 44 46 45 43 41 41 42 43 44 46
20 18 15 15 18 19 18 16 14 15 16 16 14 9 5 7 7 4 5 5 2 4 9 10 14 22 24 16 11 14 18 15 9 5 4 7 8 4 2 1 2 3 2 3 4 7 5 2 1 2 3 2 4 6 4 3 3 5 7 8 9 11 13 14 14 15 16 17 20 21 22 22 25 30 34 36 39 43 47 48 47 45 44 45 45 45 45
20 17 16 17 19 19 18 17 16 15 14 11 8 5 2 4 5 4 3 3 2 4 7 8 7 11 20 24 18 14 17 22 18 9 4 4 5 4 3 2 1 3 1 4 2 3 3 1 2 2 2 1 4 4 5 5 6 8 10 11 13 15 16 18 19 19 21 23 24 25 26 27 28 29 32 34 36 39 43 46 47 46 45 45 45 44 43
21 19 17 17 18 18 18 18 16 12 8 5 4 2 1 2 3 2 2 3 3 3 6 9 6 4 12 22 22 15 14 17 15 8 3 3 5 5 3 1 1 2 2 3 2 4 2 2 3 4 2 3 4 5 8 10 11 13 14 15 17 18 20 21 23 24 24 26 28 29 29 30 31 31 32 33 35 37 39 41 43 45 44 42 42 41 40
20 19 15 14 15 15 13 11 11 8 4 2 3 3 2 1 1 1 1 3 4 3 5 9 8 5 7 13 13 9 9 12 11 5 2 2 3 3 2 1 1 2 2 2 3 3 2 4 4 4 3 2 5 10 13 15 17 18 18 19 20 22 23 24 26 28 28 28 30 31 32 33 34 33 32 32 34 36 37 38 40 41 40 39 38 38 37
19 17 14 11 11 11 8 6 8 7 4 2 3 4 3 2 2 2 2 3 3 3 6 8 9 7 5 6 5 3 4 7 6 3 2 2 1 3 2 2 3 1 1 2 2 1 3 3 2 1 0 3 9 14 17 19 21 22 23 23 23 24 26 28 29 31 32 32 32 33 33 34 35 35 34 33 33 35 38 39 38 37 36 36 37 37 37
18 15 11 7 6 7 6 3 3 4 3 3 4 4 4 5 5 4 5 4 3 2 4 8 10 9 5 4 4 2 1 2 2 1 1 1 1 1 2 3 1 1 2 1 0 1 3 3 2 2 5 10 14 18 20 21 22 23 25 27 27 28 29 31 32 33 34 34 34 34 35 36 36 36 37 36 34 34 36 36 35 34 34 35 36 37 37
19 14 8 3 3 5 5 2 1 1 2 3 4 5 5 6 5 5 5 4 3 3 2 4 7 8 5 3 3 3 2 3 3 1 1 2 1 2 2 1 1 2 2 1 1 3 3 2 1 3 10 15 18 20 21 22 22 23 26 29 30 31 31 32 33 34 34 34 34 35 36 37 37 37 38 37 36 34 32 31 30 31 32 34 35 35 35
15 11 8 3 2 3 3 2 2 2 1 1 2 4 6 9 9 8 7 7 6 5 4 5 7 6 4 2 2 2 1 1 1 1 2 3 0 1 1 2 1 1 2 2 4 5 2 1 3 9 14 17 20 22 23 23 23 24 26 29 32 33 33 33 34 33 33 33 35 36 37 37 36 36 36 35 34 31 29 28 28 29 30 31 32 32 33
12 9 7 4 2 1 3 4 5 5 5 5 5 6 9 11 10 8 7 8 7 6 4 4 4 4 2 2 3 2 0 1 1 1 1 2 1 1 1 1 2 2 3 4 4 3 1 2 8 14 17 18 20 22 23 23 24 25 26 29 31 33 33 34 34 33 33 34 35 36 36 36 35 34 33 32 31 29 27 27 28 28 28 29 30 30 30
15 8 4 3 1 1 4 9 9 5 4 5 6 7 8 9 8 7 7 7 8 7 6 4 4 2 1 1 2 1 0 1 1 0 1 1 1 1 1 1 2 3 2 2 3 2 3 8 13 16 17 18 20 21 21 22 24 25 26 28 30 30 32 33 34 33 33 32 33 33 33 32 31 30 28 28 28 28 27 27 27 26 26 27 28 27 27
11 5 2 2 2 2 5 8 7 2 1 2 4 5 6 8 8 6 6 6 8 8 7 5 3 2 0 1 2 1 1 1 1 1 1 1 2 1 1 2 4 5 3 2 2 4 9 14 15 16 18 19 19 19 20 21 23 24 26 28 29 30 32 33 33 32 31 30 29 29 29 28 27 26 25 25 26 27 27 26 26 25 25 25 24 23 24
5 4 3 2 3 5 7 7 5 3 3 3 3 3 4 4 5 4 5 6 7 7 4 2 2 2 2 1 1 1 0 1 1 1 1 2 2 3 3 4 4 4 3 3 6 9 12 13 14 17 19 20 18 18 19 20 22 24 26 27 28 30 32 32 31 29 28 27 26 26 25 24 22 22 22 23 24 25 26 25 24 23 23 23 21 20 20
4 4 5 6 8 10 9 7 6 6 7 7 7 6 5 4 4 5 5 5 4 3 2 2 3 3 1 1 2 1 1 1 1 0 2 2 1 2 4 4 3 2 3 8 11 12 12 13 14 16 17 17 17 17 18 20 22 24 25 26 28 30 31 30 29 27 26 25 24 23 22 21 20 20 21 22 22 23 23 24 24 22 21 20 19 17 16
Wind_Direction
290 306 317 316 316 317 310 308 306 297 291 244 212 212 213 217 229 240 236 215 196 186 185 224 215 221 245 244 236 234 245 249 247 237 211 207 217 220 216 216 220 223 226 228 226 222 218 214 217 228 231 217 218 230 236 241 252 251 232 232 210 179 173 226 242 248 251 268 282 278 255 221 240 247 217 218 226 221 232 238 223 237 260 270 270 261 237
283 287 299 309 317 323 325 323 319 318 300 204 199 202 208 222 234 236 235 220 203 194 201 217 213 232 240 239 238 237 234 235 245 240 199 197 204 212 219 213 218 222 220 224 223 215 223 229 228 227 224 216 222 232 242 248 248 226 222 221 210 218 202 206 238 258 250 250 271 273 255 212 224 234 209 222 233 237 250 251 215 237 242 241 250 258 244
291 285 289 300 306 315 329 333 330 333 316 197 192 197 207 228 240 235 225 213 207 208 216 221 222 221 228 236 232 235 240 236 240 244 235 226 217 216 242 236 233 225 220 237 236 224 233 249 256 245 233 239 230 230 239 243 238 243 245 219 174 231 222 189 228 242 238 244 242 242 247 224 213 217 218 235 233 234 252 263 251 248 241 237 244 257 257
295 292 290 294 302 306 313 329 338 338 329 196 184 192 197 203 237 238 218 210 213 222 224 224 227 212 225 237 222 225 239 241 237 237 241 242 236 239 257 261 273 250 225 245 251 242 241 241 253 266 257 272 266 245 248 247 243 250 255 238 163 205 245 211 227 236 239 249 249 245 255 250 252 257 254 254 245 233 251 260 251 256 258 248 246 255 260
288 294 295 293 301 304 304 320 333 334 337 185 181 193 196 200 230 214 198 212 224 234 230 223 220 206 210 211 207 225 234 244 238 223 223 232 227 229 242 240 241 238 232 242 249 248 246 239 239 249 253 267 285 280 276 266 257 259 263 256 218 202 256 237 233 239 240 248 254 255 255 254 256 262 262 262 257 246 249 252 251 260 269 260 251 256 262
280 286 290 288 294 297 298 309 311 322 336 318 184 197 198 206 252 236 210 205 224 235 230 226 227 220 214 208 218 238 238 230 222 219 230 230 213 210 244 235 231 239 245 247 249 247 247 250 251 249 273 322 320 305 304 293 286 286 278 267 253 232 252 246 241 244 240 242 250 251 252 254 253 254 258 259 257 253 251 253 254 253 255 258 256 255 259
277 279 282 282 286 288 287 293 284 287 307 286 196 203 212 225 270 265 257 249 253 269 259 234 243 236 229 217 218 240 248 240 229 222 250 250 217 214 235 243 249 279 288 247 246 251 245 257 276 359 6 326 315 312 310 318 337 345 323 295 294 270 253 251 253 256 248 242 244 245 247 251 250 250 250 250 253 253 251 252 255 254 256 261 262 258 257
271 274 277 275 278 280 278 282 278 273 288 283 231 215 228 241 263 288 296 278 266 280 310 322 279 250 242 235 221 231 243 246 245 228 218 237 233 223 233 334 9 357 30 197 232 249 200 190 251 347 10 322 304 288 291 309 336 338 321 305 299 275 272 273 270 267 256 249 248 243 242 245 248 249 247 247 249 250 251 253 253 256 259 260 260 260 259
266 267 271 271 270 273 271 270 273 264 263 272 255 228 234 241 244 291 313 287 265 274 266 247 267 242 230 224 217 222 228 242 276 275 235 228 187 78 49 11 355 250 248 262 241 238 104 212 242 255 256 266 268 261 268 293 311 311 297 292 301 295 294 289 278 270 259 251 249 250 250 247 247 247 246 246 245 244 247 247 244 247 252 255 258 260 263
265 263 266 267 265 267 267 262 263 256 246 251 248 232 237 245 245 256 283 277 268 283 321 289 227 236 235 217 251 251 254 16 25 325 249 184 107 60 39 356 332 307 282 295 312 333 309 284 279 276 262 254 254 253 252 251 254 272 286 284 274 265 271 280 276 274 276 268 263 265 263 251 244 239 237 239 240 242 244 244 245 247 249 256 263 267 298
265 263 263 265 262 261 260 256 253 248 244 244 242 238 244 249 247 250 263 271 260 257 265 246 234 240 4 11 342 278 277 26 33 298 275 132 35 358 358 347 319 296 287 313 325 327 319 308 300 289 271 259 255 254 254 248 241 241 249 263 261 256 262 270 274 279 284 287 291 286 270 259 253 225 229 239 243 246 248 251 257 264 282 312 327 2 11
258 258 259 262 260 256 255 256 256 249 244 245 243 241 244 247 246 243 238 249 255 238 217 236 246 293 329 299 291 293 282 301 317 290 282 287 299 313 327 329 283 275 298 319 326 330 328 316 302 288 270 260 255 255 254 251 249 244 236 235 254 264 267 267 266 272 276 282 285 273 259 265 266 93 8 290 271 277 282 276 285 329 358 7 19 24 17
255 256 258 259 256 255 254 254 254 251 248 248 247 244 241 241 240 232 220 239 261 247 238 264 276 290 308 296 279 280 286 289 294 292 285 284 290 299 304 258 228 270 299 320 333 337 331 311 298 287 273 264 254 251 248 247 251 250 240 231 235 248 258 260 256 260 269 271 263 257 267 275 190 69 28 10 3 359 347 332 22 24 10 9 23 18 11
257 258 260 260 258 257 256 251 248 248 247 248 250 248 243 239 236 229 219 222 252 246 238 268 282 270 265 267 268 278 285 283 282 288 291 283 283 295 297 198 186 288 318 330 338 336 320 306 312 308 297 299 294 266 253 249 247 246 244 240 235 239 248 260 258 242 247 260 256 259 272 269 224 49 16 12 357 335 321 272 60 32 10 3 16 13 7
257 257 257 258 257 254 254 252 251 249 246 245 248 248 245 241 239 233 226 228 256 258 235 238 256 242 231 241 244 248 264 264 262 276 285 279 281 290 285 227 227 328 329 329 326 308 276 289 294 306 314 315 306 291 299 306 272 248 247 260 24 260 239 264 277 250 257 272 270 274 273 265 311 333 305 324 302 278 259 226 182 36 14 3 11 12 6
258 257 256 254 253 252 253 252 250 248 246 246 247 248 246 242 239 237 231 228 236 255 241 239 239 233 229 248 254 252 246 239 241 275 282 274 273 279 277 267 290 305 305 297 259 201 243 264 259 280 281 275 292 290 296 318 306 289 333 18 19 348 273 259 282 277 290 283 277 290 277 266 20 328 302 329 315 297 275 218 187 44 13 360 11 13 5
258 257 256 255 253 252 253 251 250 247 244 243 245 247 247 242 238 238 233 225 226 244 254 225 215 225 235 265 261 247 215 214 224 228 249 255 267 284 284 281 285 286 274 238 223 203 221 250 250 260 263 257 270 271 270 282 280 288 322 350 359 350 342 330 292 280 290 286 276 286 279 69 4 329 337 338 318 304 290 240 266 34 13 359 8 4 356
259 257 256 253 251 250 250 251 250 248 246 244 244 246 248 244 239 236 233 227 226 244 247 222 192 210 221 212 225 229 197 203 239 237 251 271 273 270 271 273 284 282 237 177 220 218 206 238 245 244 259 252 234 245 263 271 270 280 304 315 329 335 324 301 272 268 285 284 281 286 261 95 10 344 348 345 333 336 108 284 317 7 358 353 2 353 345
260 259 256 253 251 251 251 249 248 248 247 244 242 244 246 245 240 235 233 231 231 246 249 234 217 231 240 240 243 247 243 244 246 235 263 317 243 234 253 258 254 257 206 127 152 231 217 247 256 242 266 257 234 238 264 251 257 299 320 308 305 311 299 272 253 279 298 285 289 289 262 39 15 352 347 356 4 19 309 312 322 333 328 340 349 340 336
261 260 258 255 254 252 249 248 247 248 246 242 241 246 248 246 242 238 236 235 238 250 256 248 238 243 248 245 237 235 234 234 234 217 199 249 243 218 288 270 243 227 131 121 175 231 221 239 261 264 212 240 250 283 262 256 285 293 295 303 303 298 298 288 264 277 288 272 276 276 260 343 359 348 348 18 47 272 296 311 282 281 309 329 334 329 329
261 260 259 258 256 252 250 249 247 245 244 241 242 246 249 248 244 242 243 240 238 247 259 256 247 246 249 248 244 243 239 234 233 230 228 238 241 219 211 244 211 172 153 162 180 231 213 200 238 269 234 236 265 260 198 339 303 283 181 269 290 265 252 269 268 282 282 260 262 273 285 325 335 335 325 321 298 275 271 269 249 263 298 317 319 319 320
259 259 258 258 256 253 251 250 247 244 242 242 242 244 247 248 245 243 246 243 237 240 250 254 252 252 252 250 247 246 245 244 246 246 243 244 243 235 235 238 226 225 231 195 152 267 265 201 192 233 249 250 248 241 205 173 280 289 45 242 251 211 203 245 272 277 259 233 259 289 305 306 307 307 294 291 290 274 255 250 262 282 299 307 308 311 315
260 259 259 257 255 252 250 249 248 245 242 240 241 241 244 247 247 244 247 247 243 246 252 256 257 257 253 248 246 246 246 247 249 248 245 245 247 245 243 241 239 239 239 231 222 220 204 191 193 214 238 225 185 226 246 217 228 264 273 243 237 242 252 267 276 257 258 253 257 272 289 289 290 295 295 285 279 268 254 254 277 296 305 307 305 305 308
261 260 259 256 254 252 252 251 248 245 241 239 241 243 245 247 247 243 240 240 241 249 261 260 253 252 255 258 260 257 252 250 251 251 247 241 240 245 245 242 239 234 235 238 238 233 220 209 198 213 233 208 155 173 237 232 213 225 243 254 265 249 243 243 243 248 260 266 255 259 276 280 282 288 290 280 267 253 243 259 285 297 301 302 302 303 304
261 260 258 256 255 254 253 251 248 245 243 241 240 243 244 245 245 241 236 235 235 240 255 257 252 257 266 271 267 261 257 256 256 253 248 241 237 240 248 250 247 241 242 248 246 235 228 225 184 205 229 213 186 184 223 225 210 202 207 229 261 242 206 202 236 240 235 252 267 271 272 274 277 280 279 270 253 240 246 269 286 292 293 292 293 296 299
259 259 258 258 257 254 251 250 247 246 246 243 240 241 243 244 244 241 238 238 243 246 246 256 263 269 271 263 260 264 267 267 260 254 250 246 242 244 249 253 253 249 250 255 249 234 225 214 201 215 227 213 201 194 204 210 206 207 212 220 230 235 221 219 238 250 255 261 269 271 272 274 274 271 268 263 253 248 258 276 287 291 291 291 293 296 297
260 260 260 259 257 254 251 250 249 245 243 243 242 242 243 243 243 243 240 237 238 242 243 251 262 267 263 258 263 268 266 262 260 255 252 250 246 246 247 248 249 249 248 251 249 239 226 201 213 225 231 226 220 210 211 216 209 210 236 228 213 216 248 249 236 251 266 261 252 252 261 276 273 268 269 268 262 261 271 285 292 293 292 294 298 300 302
261 260 259 256 255 254 251 251 251 249 243 241 243 245 245 243 241 243 244 240 235 234 242 255 262 269 269 263 262 259 248 249 255 254 252 250 247 246 246 244 245 246 244 242 244 239 219 210 224 226 217 220 226 228 223 224 223 222 233 231 217 217 236 245 240 245 254 260 261 255 243 255 273 278 278 272 268 276 288 292 292 292 293 296 299 300 303
261 259 258 256 255 255 252 250 251 250 245 241 243 247 250 250 246 243 243 245 242 240 244 255 262 265 264 263 264 260 252 252 255 255 256 255 248 245 245 244 242 242 240 237 234 232 232 228 224 225 221 208 202 217 218 215 233 238 235 236 237 238 241 243 247 253 259 267 273 270 258 260 272 276 276 276 281 290 292 288 285 289 294 297 299 299 301
262 260 258 256 253 253 252 250 249 247 244 242 243 246 250 252 249 243 240 244 244 239 236 240 254 261 260 262 263 260 253 252 254 253 253 252 248 245 245 244 243 242 240 236 230 226 235 233 226 232 233 223 202 155 207 215 235 243 239 243 245 245 245 246 248 253 259 267 274 276 270 269 273 275 279 286 290 288 283 282 288 294 298 299 300 303 303
262 261 259 257 254 252 251 250 245 242 240 236 233 231 229 243 250 246 241 240 240 236 233 237 253 267 269 265 260 256 254 252 251 251 250 248 248 248 246 243 241 239 234 230 228 227 230 231 227 232 231 223 212 177 180 216 247 255 246 246 246 243 245 250 253 256 262 268 274 277 274 275 278 280 283 286 284 280 284 291 297 301 304 304 304 305 305
261 260 258 257 255 251 250 250 244 241 240 236 232 230 231 239 247 241 226 223 226 225 224 230 250 257 265 266 259 254 253 249 245 244 246 244 244 246 244 239 238 238 234 229 228 229 230 229 226 234 234 226 218 195 195 220 238 252 249 250 251 249 249 254 258 261 267 271 275 278 279 279 280 278 280 284 288 291 298 303 306 308 308 308 309 309 308
260 259 258 258 256 252 251 250 246 243 242 242 242 241 239 238 235 217 197 203 216 219 218 213 210 233 233 259 259 235 225 227 228 230 237 241 239 240 240 235 234 237 235 228 219 218 230 225 218 232 242 232 214 189 241 233 238 249 252 255 260 262 262 263 265 267 271 273 272 269 273 280 283 283 286 291 295 300 306 309 309 309 310 311 312 313 313
258 258 258 257 255 254 252 250 246 244 241 240 243 242 237 236 235 228 226 229 227 223 221 214 179 220 235 266 283 220 201 201 209 213 227 240 234 229 231 231 228 226 227 224 219 219 229 218 194 210 238 222 183 173 245 241 241 247 252 257 263 268 269 269 267 267 269 272 274 272 276 284 287 288 292 296 299 304 308 309 310 311 312 313 314 314 314
256 256 257 257 256 257 254 248 243 241 236 234 239 241 239 239 238 236 238 239 233 224 222 213 197 207 226 244 278 223 205 203 209 208 214 231 229 222 221 223 216 211 215 216 214 218 218 205 193 198 199 154 151 209 236 242 247 251 256 264 269 270 272 271 271 273 275 281 288 290 290 290 289 291 296 300 304 308 311 312 311 311 310 311 313 314 313
254 255 257 257 257 256 252 246 240 237 234 234 239 242 243 241 237 236 238 237 231 226 225 209 191 195 210 233 256 209 197 206 216 212 209 215 219 215 214 211 200 205 202 189 177 221 216 203 190 172 184 191 206 230 239 260 279 280 269 281 285 288 291 289 287 289 292 296 300 297 291 289 294 299 303 307 309 312 312 312 313 313 310 310 312 314 313
252 253 253 253 253 253 251 246 239 235 238 240 241 241 241 237 233 233 233 232 232 231 228 227 234 221 213 225 227 185 182 197 209 205 204 207 205 204 201 192 180 196 192 191 226 212 202 193 184 199 236 212 174 80 57 57 36 60 122 284 301 306 303 300 299 301 304 308 310 302 297 301 305 308 309 311 314 314 313 312 314 313 311 310 311 312 312
248 248 246 247 246 242 240 240 238 238 241 239 233 231 232 229 231 236 226 223 231 230 221 219 236 229 219 224 218 200 192 190 193 195 201 204 206 205 185 184 196 181 169 253 231 198 176 172 188 213 234 180 113 84 69 85 93 71 31 336 323 320 320 319 320 320 319 318 316 312 311 313 315 315 313 313 315 316 314 313 312 311 309 308 308 309 310
244 243 241 242 239 230 230 244 247 241 231 219 212 214 217 210 206 217 208 204 222 224 212 213 227 221 213 215 223 214 209 199 188 216 216 197 196 208 192 189 198 174 163 251 210 179 174 242 220 202 239 201 118 94 76 88 84 37 9 352 337 334 333 330 330 331 326 315 309 311 312 311 311 313 314 315 316 317 316 314 312 311 309 309 309 309 310
234 233 231 234 237 235 238 245 234 209 196 195 195 193 198 197 193 187 179 180 220 224 201 205 222 220 215 219 229 224 219 215 213 220 217 200 194 188 164 168 166 144 181 250 196 153 152 235 193 172 245 233 119 93 72 63 41 11 358 346 337 335 335 333 332 331 323 316 314 314 313 309 307 306 309 311 312 312 312 313 313 312 310 311 311 311 310
224 224 225 234 241 239 233 226 208 186 179 183 185 183 188 200 201 195 164 156 245 246 207 191 201 213 213 215 218 223 224 222 219 214 208 203 184 160 162 228 156 105 173 248 214 115 96 139 189 217 239 157 94 62 34 19 0 348 343 338 333 334 333 332 332 330 326 322 320 318 317 316 312 308 308 308 306 304 306 308 310 311 311 312 312 312 311
231 233 236 243 242 231 217 208 198 187 182 183 183 194 215 194 189 194 174 178 208 225 202 193 192 207 214 213 214 217 219 215 209 197 180 197 183 167 172 287 45 98 204 221 124 77 81 170 214 239 212 123 71 15 3 357 345 338 337 335 334 335 334 332 331 330 328 325 322 321 320 318 314 312 311 309 306 303 304 305 307 310 312 313 313 313 315
232 235 238 237 224 209 198 191 186 181 179 175 168 174 191 184 165 171 234 224 213 195 188 192 191 197 213 213 210 207 204 201 196 178 149 182 177 142 99 40 128 168 191 136 94 100 180 200 218 233 207 116 19 357 353 347 340 336 336 335 334 334 334 332 331 330 328 326 324 322 321 318 315 314 313 310 307 307 306 307 310 312 314 315 315 316 318
219 216 214 211 201 190 184 181 175 172 178 202 186 176 183 195 194 186 198 206 197 188 195 193 184 181 194 196 179 167 191 197 191 166 145 181 152 90 90 218 222 192 83 71 86 171 224 217 203 190 57 1 350 347 345 342 339 337 334 334 335 335 334 333 332 330 328 327 325 322 320 318 317 316 315 312 310 310 311 313 316 317 318 318 318 320 324
204 193 186 191 195 185 176 167 158 166 188 195 177 166 176 191 199 202 199 189 172 166 194 194 185 181 177 160 153 171 209 177 163 164 128 91 79 120 196 216 202 83 67 70 74 314 287 254 185 74 6 346 340 340 339 338 338 336 332 331 334 335 334 333 331 329 327 326 324 322 320 319 318 317 316 315 314 314 315 317 320 321 322 322 322 324 327
195 183 171 180 212 190 178 174 192 201 207 199 195 199 199 191 185 178 168 154 133 111 107 141 155 158 148 122 138 174 177 143 153 191 114 95 122 225 215 173 105 75 57 39 241 251 263 239 196 335 335 333 333 334 335 336 337 336 332 331 332 333 333 331 328 325 324 323 322 320 320 319 319 318 317 316 318 318 318 320 323 325 324 323 323 324 326
192 181 175 184 204 180 175 186 182 164 132 119 159 164 149 137 127 127 136 140 134 124 106 102 116 127 128 119 140 179 187 132 144 191 126 118 149 304 38 75 162 178 147 190 236 241 232 205 301 317 326 331 331 330 333 336 337 335 332 331 331 331 331 329 326 323 323 322 321 320 320 320 319 319 318 317 318 320 321 324 326 327 325 324 323 324 326
189 176 172 178 194 209 186 158 129 95 76 89 104 115 125 125 114 105 117 131 131 129 126 118 116 116 107 111 135 169 259 74 114 222 163 117 94 354 30 5 285 238 178 191 214 207 154 314 313 319 326 329 329 329 332 334 334 333 332 332 331 331 330 328 325 324 323 322 321 321 321 320 320 320 319 319 319 321 324 326 327 326 326 325 325 327 330
195 187 170 151 88 57 139 141 130 98 67 97 110 114 124 123 111 100 110 121 125 128 123 107 104 126 175 111 118 140 236 150 143 149 48 93 137 215 173 175 231 248 237 205 184 189 296 315 319 323 325 327 328 329 330 332 332 332 331 330 329 329 329 328 326 325 324 322 322 321 321 320 320 320 320 320 321 323 325 327 327 327 327 328 328 330 332
185 167 123 112 97 93 123 133 129 101 2 86 98 106 117 114 101 97 107 115 120 124 117 98 96 123 116 56 77 79 273 225 152 108 110 200 203 181 148 197 221 223 215 191 215 285 309 318 322 322 323 327 330 330 329 331 332 331 331 331 331 330 329 328 327 325 323 323 322 321 320 320 322 322 321 321 323 324 325 326 328 329 329 329 330 331 329
142 116 86 75 106 129 139 139 129 133 167 163 132 113 122 114 100 102 121 129 128 124 115 103 106 92 66 78 146 160 306 23 83 103 223 225 175 148 183 225 228 202 197 254 296 308 315 321 324 324 325 328 330 331 331 333 332 332 333 333 331 330 330 329 328 326 324 323 322 321 321 322 323 322 321 322 324 325 325 326 328 330 330 330 331 329 326
101 119 109 88 88 102 114 115 103 109 127 136 133 130 131 125 116 120 129 135 135 132 133 132 113 97 106 176 169 116 48 48 66 218 232 226 136 146 196 205 184 179 258 293 310 317 319 323 327 327 325 326 329 333 335 334 333 334 336 335 334 332 332 331 329 327 325 325 325 325 325 325 324 324 324 327 328 327 325 324 327 330 331 331 329 329 329